Location: Gad�tanya
(48.0500°N, 20.8500°E)
Time: 10:45:01
(UTC+00:00)

GP-B - Pass Details

Date: 05 July 2020
Orbit: 631 x 635 km, 89.8° (Epoch: 14 August)

Event Time Altitude Azimuth Distance (km) Brightness Sun altitude
Rises 22:03:16 0° 1° (N) 2,944 8.1 -18.8°
Reaches altitude 10° 22:05:30 10° 2° (N) 2,030 6.9 -18.8°
Maximum altitude 22:09:58 87° 91° (E) 641 3.0 -18.9°
Enters shadow 22:11:25 43° 180° (S) 895 3.4 -19.0°
